Location: Guferjoch
(46.7462°N, 8.4506°E)
Time: 12:21:42
(UTC+00:00)

Cosmos 1459 Rocket - Pass Details

Date: 14 July 2020
Orbit: 938 x 999 km, 83.0° (Epoch: 07 August)

Event Time Altitude Azimuth Distance (km) Brightness Sun altitude
Exits shadow 00:52:48 32° 182° (S) 1,577 4.6 -19.2°
Maximum altitude 00:55:51 84° 97° (E) 962 3.9 -19.1°
Drops below altitude 10° 01:02:03 10° 10° (N) 2,706 7.5 -18.7°
Sets 01:04:35 0° 10° (N) 3,666 8.5 -18.5°
